[[{"header":{"parameterUnit":"m.s-1","parameterCategory":1,"la1":30.2991,"la2":30.254,"lo1":-89.0895,"lo2":-89.0444,"dy":0.0017,"dx":0.0017,"nx":28,"ny":28,"refTime":"2026-01-30T09:00:00:Z","depth":0,"parameterNumber":2,"parameterNumberName":"U-component_of_WINDS"},"data":[0,0,0,0,0,0,0,0,0,0,0,0,0,0,0,0,0,0,0,0,0,0,0,0,0,0,0,0,0,0,0,0,0,0,0,0,0,0,0,0,0,0,0,0,0,0,0,0,0,0,0,0,0,0,0,0,0,0,1.9936,1.9936,0,1.9952,1.9952,1.9953,1.9934,1.9933,1.9933,1.9932,1.9949,1.995,1.9951,0,0,0,0,0,0,0,0,0,0,0,0,0,1.9889,1.989,1.9936,1.9936,1.9936,1.9952,1.9952,1.9953,1.9934,1.9933,1.9933,1.9932,1.9948,1.995,1.9951,0,0,0,0,0,0,0,0,0,0,0,0,0,1.9908,1.989,1.9936,1.9929,1.9928,1.9952,1.9952,1.9953,1.9934,1.9933,1.9932,1.9931,1.9948,1.9949,1.9951,1.9982,0,0,1.9956,1.9957,0,0,0,0,0,0,0,0,1.9907,1.991,1.993,1.9929,1.9929,1.994,1.9942,1.9963,1.9935,1.9932,1.9932,1.9931,1.9947,1.9948,1.9954,1.9983,1.9984,1.9956,1.9957,1.9958,1.9958,0,0,0,0,0,0,0,1.9906,1.9909,1.9942,1.993,1.993,1.9925,1.9927,1.9946,1.9945,1.9932,1.9931,1.9933,1.9946,1.9952,1.9954,1.9984,1.9956,1.9958,1.9959,1.9959,2.0042,2.0043,0,0,0,0,0,0,1.9905,1.9908,1.9942,1.9943,1.9915,1.9927,1.9929,1.9938,1.9945,1.9945,1.9934,1.9932,1.995,1.9952,1.9954,1.9992,1.9958,1.996,1.996,2.004,2.0042,2.0043,0,0,0,0,0,0,1.9904,1.9908,1.9941,1.9925,1.9929,1.9929,1.9939,1.9938,1.9944,1.9946,1.9946,1.994,1.9949,1.9952,1.9976,1.9992,1.996,1.9962,2.0039,2.0041,2.0042,2.0067,0,0,0,0,0,0,1.9903,1.9908,1.9919,1.9925,1.993,1.9962,1.994,1.9939,1.9947,1.9945,1.9952,1.9952,1.9949,1.9974,1.9978,1.9994,1.9963,2.0037,2.004,2.0042,2.0065,2.007,2.0074,0,0,0,0,0,1.9901,1.9925,1.992,1.9924,1.9944,1.9963,1.9965,1.9961,1.9949,1.996,1.9962,1.9952,1.999,1.9976,1.998,1.9998,2.0036,2.0039,2.0042,2.0063,2.0069,2.0074,0,0,0,0,0,0,1.992,1.9926,1.992,1.9947,1.9954,1.9959,1.9974,1.9967,1.9978,1.9975,1.997,1.9972,1.9997,2.0,1.9984,2.0029,2.0011,2.0015,2.0026,2.0032,2.0036,2.0034,1.9964,0,0,0,0,0,1.9928,1.9942,1.9946,1.997,1.9974,1.9974,1.9981,1.9978,1.9985,1.9989,1.9992,2.0,2.0014,2.0023,2.0036,2.0066,2.0068,2.008,2.0085,2.0088,2.0091,2.0108,2.0114,2.0052,2.0052,2.0052,0,0,1.9943,1.9948,1.9957,1.9974,1.9979,1.9995,1.9976,1.9993,2.0005,1.9991,2.0014,2.0017,2.0025,2.0053,2.0065,2.0056,2.0109,2.0092,2.0094,2.0095,2.0112,2.0118,2.0123,2.0054,2.0053,2.0053,0,0,1.9978,1.9983,2.0004,2.001,2.0019,2.0019,2.0024,2.0031,2.0033,2.0056,2.0046,2.006,2.0084,2.0091,2.0098,2.0139,2.0131,2.0144,2.0166,2.0183,2.0188,2.0192,2.0207,2.0213,2.0147,2.0147,2.0147,0,1.9996,2.0019,2.0015,2.0033,2.0041,2.0031,2.0052,2.0058,2.0071,2.0077,2.0067,2.0098,2.0103,2.0133,2.0143,2.0149,2.0155,2.0142,2.0188,2.0192,2.0196,2.021,2.0216,2.0149,2.0148,2.0148,2.0148,0,2.004,2.0057,2.0072,2.0085,2.0095,2.0115,2.0115,2.0125,2.0122,2.0123,2.0147,2.0153,2.0168,2.0175,2.0171,2.0204,2.0199,2.0189,2.017,2.0203,2.0217,2.0222,2.0151,2.015,2.015,2.0149,0,0,2.0086,2.0099,2.0104,2.0111,2.0122,2.0134,2.0154,2.0169,2.0179,2.0189,2.0205,2.0227,2.0219,2.0226,2.0223,2.0238,2.0272,2.0227,2.0227,2.0235,2.0309,2.0317,2.0323,2.0267,2.0268,2.0268,2.0309,0,2.0121,2.0156,2.0154,2.0186,2.0202,2.0193,2.0211,2.022,2.0222,2.0236,2.0239,2.0255,2.0242,2.0247,2.0261,2.0264,2.0286,2.0262,2.0282,2.0283,2.0279,2.033,2.0337,2.0374,2.0314,2.0315,2.0315,0,2.0167,2.0179,2.0213,2.0223,2.023,2.0246,2.026,2.0274,2.0284,2.0285,2.0295,2.029,2.0311,2.0294,2.0323,2.0306,2.0315,2.0318,2.032,2.032,2.03,2.0332,2.0386,2.0392,2.0324,2.0323,2.0322,0,2.0197,2.0222,2.0246,2.0252,2.0264,2.0276,2.0281,2.0291,2.0301,2.0314,2.032,2.0335,2.0343,2.0356,2.0356,2.0343,2.0386,2.0368,2.0387,2.0387,2.0395,2.0395,2.0452,2.0402,2.0402,2.0402,2.0402,0,2.0236,2.0257,2.026,2.0275,2.0299,2.0297,2.0321,2.0326,2.0335,2.0351,2.0345,2.036,2.0359,2.0375,2.0375,2.04,2.0404,2.0405,2.0405,2.0405,2.0405,2.041,2.0407,2.0403,2.0403,2.0403,2.0403,0,2.0273,2.0276,2.0301,2.0311,2.0315,2.0332,2.0341,2.0355,2.0358,2.0378,2.0383,2.0388,2.0406,2.0408,2.0429,2.0429,2.0459,2.0456,2.0455,2.0455,2.0474,2.0472,2.0535,2.0544,2.0489,2.049,2.049,0,2.0297,2.0314,2.0326,2.0337,2.0343,2.036,2.037,2.0371,2.0382,2.0396,2.0409,2.0427,2.0441,2.0471,2.0476,2.0493,2.049,2.0512,2.0493,2.0493,2.049,2.0489,2.0491,2.0515,2.0515,2.0516,2.0516,0,2.0341,2.0342,2.0357,2.0373,2.0386,2.0399,2.041,2.042,2.0421,2.0434,2.0453,2.0465,2.0487,2.0505,2.0522,2.0528,2.0523,2.0523,2.0528,2.0528,2.0527,2.0528,2.0465,2.0521,2.052,2.052,2.052,2.0519,2.0372,2.0386,2.0398,2.0416,2.0425,2.0437,2.0451,2.0457,2.0473,2.0491,2.0491,2.0512,2.0524,2.0546,2.0554,2.0571,2.0564,2.0571,2.0573,2.0575,2.0577,2.0525,2.0574,2.0574,2.0574,2.0574,2.0574,0,2.0415,2.0422,2.0439,2.0456,2.047,2.0465,2.0479,2.0491,2.051,2.0522,2.0536,2.0559,2.0577,2.0585,2.0603,2.0615,2.0614,2.062,2.0619,2.062,2.0582,2.0576,2.0621,2.0621,2.0621,2.0621,2.0621,2.0621,2.0439,2.0463,2.0466,2.0496,2.0504,2.0525,2.0533,2.0544,2.0554,2.058,2.0595,2.06,2.0611,2.063,2.0647,2.0649,2.0656,2.0663,2.0664,2.0628,2.0623,2.0618,2.0612,2.0665,2.0665,2.0701,2.0701,2.0702]},{"header":{"parameterUnit":"m.s-1","parameterCategory":1,"la1":30.2991,"la2":30.254,"lo1":-89.0895,"lo2":-89.0444,"dy":0.0017,"dx":0.0017,"nx":28,"ny":28,"refTime":"2026-01-30T09:00:00:Z","depth":0,"parameterNumber":3,"parameterNumberName":"V-component_of_WINDS"},"data":[0,0,0,0,0,0,0,0,0,0,0,0,0,0,0,0,0,0,0,0,0,0,0,0,0,0,0,0,0,0,0,0,0,0,0,0,0,0,0,0,0,0,0,0,0,0,0,0,0,0,0,0,0,0,0,0,0,0,-4.7377,-4.7378,0,-4.7505,-4.7506,-4.7508,-4.7431,-4.7428,-4.7424,-4.7421,-4.7553,-4.7559,-4.7566,0,0,0,0,0,0,0,0,0,0,0,0,0,-4.7068,-4.7074,-4.7377,-4.7378,-4.738,-4.7505,-4.7506,-4.7508,-4.7432,-4.7428,-4.7423,-4.7419,-4.755,-4.7559,-4.7567,0,0,0,0,0,0,0,0,0,0,0,0,0,-4.72,-4.7076,-4.7376,-4.7357,-4.7356,-4.7504,-4.7506,-4.7509,-4.7433,-4.7428,-4.7422,-4.7417,-4.7548,-4.7558,-4.7568,-4.7742,0,0,-4.76,-4.7604,0,0,0,0,0,0,0,0,-4.7192,-4.7211,-4.7358,-4.7359,-4.7358,-4.7446,-4.7446,-4.7587,-4.7434,-4.7404,-4.7421,-4.7414,-4.7522,-4.7534,-4.757,-4.7749,-4.7754,-4.7601,-4.7607,-4.7612,-4.7614,0,0,0,0,0,0,0,-4.7183,-4.7205,-4.7427,-4.736,-4.7361,-4.7342,-4.7355,-4.7472,-4.7492,-4.7406,-4.7401,-4.7417,-4.7521,-4.756,-4.7573,-4.7756,-4.76,-4.761,-4.7616,-4.762,-4.8086,-4.8092,0,0,0,0,0,0,-4.7176,-4.7198,-4.7423,-4.7431,-4.726,-4.7353,-4.7367,-4.7424,-4.7491,-4.7496,-4.7422,-4.7413,-4.7545,-4.7561,-4.7577,-4.7787,-4.7611,-4.7621,-4.7627,-4.808,-4.8088,-4.8094,0,0,0,0,0,0,-4.7169,-4.7196,-4.7418,-4.7313,-4.734,-4.7364,-4.7428,-4.7429,-4.7469,-4.7502,-4.7506,-4.7458,-4.7542,-4.7562,-4.7702,-4.7791,-4.7626,-4.7635,-4.8073,-4.8082,-4.8091,-4.8208,0,0,0,0,0,0,-4.7161,-4.7194,-4.726,-4.7315,-4.7346,-4.7541,-4.7434,-4.7436,-4.7487,-4.7477,-4.7538,-4.7543,-4.7539,-4.7687,-4.7713,-4.7802,-4.7643,-4.8065,-4.8077,-4.8088,-4.8197,-4.822,-4.8241,0,0,0,0,0,-4.715,-4.7288,-4.7264,-4.7292,-4.7429,-4.7546,-4.7564,-4.7556,-4.7494,-4.7561,-4.7583,-4.7541,-4.7777,-4.7702,-4.773,-4.7824,-4.806,-4.8074,-4.8087,-4.8187,-4.8216,-4.824,0,0,0,0,0,0,-4.7243,-4.7295,-4.7269,-4.7429,-4.7484,-4.7533,-4.7617,-4.7587,-4.7661,-4.7649,-4.7636,-4.7651,-4.7797,-4.7824,-4.774,-4.7997,-4.7908,-4.7929,-4.7974,-4.8002,-4.8024,-4.8015,-4.7652,0,0,0,0,0,-4.7282,-4.7372,-4.7413,-4.755,-4.7579,-4.7594,-4.7644,-4.7634,-4.7691,-4.7714,-4.7746,-4.7802,-4.7889,-4.7947,-4.8029,-4.82,-4.8213,-4.8278,-4.83,-4.8318,-4.8336,-4.843,-4.846,-4.814,-4.8139,-4.8139,0,0,-4.7364,-4.7403,-4.7461,-4.757,-4.7611,-4.7706,-4.7614,-4.7717,-4.7788,-4.7729,-4.7864,-4.789,-4.7952,-4.8109,-4.818,-4.8136,-4.8427,-4.8336,-4.835,-4.8358,-4.8448,-4.8478,-4.8505,-4.8149,-4.8147,-4.8146,0,0,-4.7561,-4.76,-4.7719,-4.7763,-4.7827,-4.7836,-4.7865,-4.7919,-4.7934,-4.8069,-4.8027,-4.8111,-4.8261,-4.8308,-4.8351,-4.8569,-4.8533,-4.8596,-4.8711,-4.8803,-4.8829,-4.8851,-4.893,-4.8959,-4.8613,-4.8613,-4.8614,0,-4.7655,-4.7796,-4.7784,-4.7892,-4.7942,-4.7893,-4.8015,-4.8058,-4.8146,-4.8182,-4.8131,-4.832,-4.8358,-4.8526,-4.8579,-4.8616,-4.8649,-4.8589,-4.8826,-4.8848,-4.8869,-4.8944,-4.8974,-4.8621,-4.862,-4.8619,-4.8618,0,-4.7909,-4.8007,-4.8096,-4.8182,-4.8242,-4.8356,-4.8363,-4.8425,-4.841,-4.8425,-4.8564,-4.8609,-4.87,-4.8738,-4.8724,-4.8905,-4.8877,-4.8827,-4.8737,-4.8907,-4.8978,-4.9006,-4.8631,-4.8629,-4.8626,-4.8625,0,0,-4.8169,-4.8248,-4.8281,-4.832,-4.8388,-4.8464,-4.8577,-4.8666,-4.872,-4.8782,-4.8877,-4.9006,-4.8961,-4.901,-4.9001,-4.9082,-4.9253,-4.9022,-4.9023,-4.9065,-4.9458,-4.9496,-4.953,-4.923,-4.9235,-4.9239,-4.9453,0,-4.8372,-4.8568,-4.8562,-4.8746,-4.8838,-4.8793,-4.8892,-4.8944,-4.8961,-4.9042,-4.9061,-4.9153,-4.9085,-4.9115,-4.9193,-4.9216,-4.9332,-4.92,-4.932,-4.9324,-4.9307,-4.9567,-4.9607,-4.9807,-4.9481,-4.9485,-4.9489,0,-4.8635,-4.8707,-4.89,-4.8955,-4.8994,-4.9082,-4.9164,-4.9242,-4.9301,-4.9308,-4.9364,-4.9343,-4.9458,-4.9365,-4.9525,-4.9435,-4.9483,-4.9502,-4.951,-4.9522,-4.9418,-4.9587,-4.987,-4.9901,-4.9532,-4.9528,-4.9525,0,-4.8808,-4.8952,-4.9087,-4.9122,-4.9189,-4.9253,-4.9284,-4.9338,-4.9393,-4.9465,-4.95,-4.9584,-4.9631,-4.9697,-4.97,-4.9631,-4.9862,-4.9768,-4.9872,-4.9872,-4.9923,-4.992,-5.022,-4.9952,-4.9952,-4.9951,-4.995,0,-4.9036,-4.9156,-4.9166,-4.9249,-4.9383,-4.9375,-4.9508,-4.9533,-4.9581,-4.9669,-4.9636,-4.9719,-4.9716,-4.9801,-4.9803,-4.9936,-4.9957,-4.9967,-4.9966,-4.9971,-4.997,-5.0003,-4.999,-4.9959,-4.9957,-4.9956,-4.9954,0,-4.9252,-4.9263,-4.9407,-4.9459,-4.9476,-4.9572,-4.9618,-4.9697,-4.9711,-4.9823,-4.9849,-4.9872,-4.997,-4.9979,-5.0092,-5.0094,-5.0256,-5.0239,-5.0236,-5.0234,-5.0338,-5.0329,-5.067,-5.0715,-5.0417,-5.042,-5.0422,0,-4.9398,-4.9489,-4.9552,-4.9609,-4.9644,-4.9735,-4.9791,-4.9787,-4.9846,-4.9922,-4.9993,-5.0088,-5.0164,-5.0324,-5.0351,-5.0438,-5.0424,-5.0538,-5.0437,-5.044,-5.0428,-5.0424,-5.0434,-5.0558,-5.0561,-5.0564,-5.0566,0,-4.9656,-4.9657,-4.9739,-4.9823,-4.9891,-4.9957,-5.0019,-5.0067,-5.0071,-5.014,-5.024,-5.03,-5.0416,-5.0512,-5.0598,-5.063,-5.0601,-5.0598,-5.0627,-5.0633,-5.0628,-5.0634,-5.0291,-5.059,-5.0588,-5.0586,-5.0585,-5.0584,-4.9843,-4.9923,-4.998,-5.0073,-5.0119,-5.0178,-5.0256,-5.028,-5.0364,-5.0459,-5.0451,-5.0563,-5.0621,-5.0734,-5.0773,-5.0861,-5.0823,-5.0864,-5.0875,-5.0886,-5.0898,-5.0613,-5.0876,-5.0876,-5.0875,-5.0874,-5.0874,0,-5.0101,-5.0136,-5.0221,-5.0309,-5.0382,-5.0347,-5.0414,-5.0478,-5.0576,-5.0633,-5.0709,-5.0826,-5.0918,-5.0953,-5.1044,-5.1108,-5.1096,-5.1132,-5.1128,-5.1137,-5.0925,-5.0892,-5.114,-5.114,-5.114,-5.114,-5.114,-5.114,-5.0244,-5.0378,-5.0387,-5.0544,-5.0578,-5.0687,-5.0729,-5.0784,-5.0829,-5.0961,-5.1038,-5.106,-5.1109,-5.1203,-5.1287,-5.1295,-5.1331,-5.1373,-5.1375,-5.1178,-5.1151,-5.1126,-5.1094,-5.138,-5.1381,-5.1579,-5.1581,-5.1582]}]]